Weather History for KTWM - January, 2013

Change the Weather History Date:

Sunday, January 13, 2013

  Actual Average Record
Temperature  
Mean Temperature 4 °F -  
Max Temperature 8 °F 23 °F 39 °F (1980)
Min Temperature 1 °F 3 °F -25 °F (2009)
Degree Days  
Heating Degree Days 60    
Moisture  
Dew Point -3 °F    
Average Humidity 70    
Maximum Humidity 78    
Minimum Humidity 61    
Precipitation  
Precipitation 0.00 in - - ()
Sea Level Pressure  
Sea Level Pressure 29.99 in    
Wind  
Wind Speed 4 mph (WNW)    
Max Wind Speed 9 mph    
Max Gust Speed 17 mph    
Visibility 8 miles    
Events Snow    
Averages and records for this station are not official NWS values.
T = Trace of Precipitation, MM = Missing Value Source: NWS Daily Summary

Daily Weather History Graph

Daily Weather History Graph

Search for Another Location

Airport or City:

Trip Planner

Search our weather history database for the weather conditions in past years. The results will help you decide how hot, cold, wet, or windy it might be!

Date:

Astronomy

Jan. 13, 2013 Rise Set
Actual Time 7:49 AM CST 4:42 PM CST
Civil Twilight 7:15 AM CST 5:16 PM CST
Nautical Twilight 6:37 AM CST 5:54 PM CST
Astronomical Twilight 6:00 AM CST 6:31 PM CST
Moon 8:37 AM CST (1/13) 7:34 PM CST (1/13)
Length of Visible Light 10h 01m
Length of Day
8h 53m
Waxing Crescent, 5% of the Moon is Illuminated
Jan 13
Waxing Crescent
Jan 18
First Quarter
Jan 26
Full
Feb 3
Last Quarter
Feb 10
New

Hourly Weather History & Observations

Time (CST) Temp. Windchill Dew Point Humidity Pressure Visibility Wind Dir Wind Speed Gust Speed Precip Events Conditions
12:11 AM 6.8 °F - -2.2 °F 67% 29.94 in 10.0 mi Calm Calm - N/A   Mostly Cloudy
12:32 AM 5.0 °F -2.1 °F -2.2 °F 72% 29.95 in 10.0 mi WSW 3.5 mph - N/A   Scattered Clouds
12:51 AM 5.0 °F - -2.2 °F 72% 29.94 in 10.0 mi Calm Calm - N/A   Clear
1:11 AM 3.2 °F - -2.2 °F 78% 29.95 in 10.0 mi Calm Calm - N/A   Clear
1:31 AM 3.2 °F - -2.2 °F 78% 29.95 in 10.0 mi Calm Calm - N/A   Scattered Clouds
1:51 AM 3.2 °F - -2.2 °F 78% 29.95 in 10.0 mi Calm Calm - N/A   Scattered Clouds
2:12 AM 3.2 °F -4.2 °F -2.2 °F 78% 29.96 in 10.0 mi West 3.5 mph - N/A   Scattered Clouds
2:31 AM 3.2 °F -4.2 °F -2.2 °F 78% 29.97 in 7.0 mi WNW 3.5 mph - N/A   Mostly Cloudy
2:51 AM 3.2 °F - -2.2 °F 78% 29.96 in 7.0 mi Calm Calm - N/A   Overcast
3:12 AM 3.2 °F - -2.2 °F 78% 29.96 in 10.0 mi Calm Calm - N/A   Overcast
3:31 AM 3.2 °F - -4.0 °F 72% 29.96 in 10.0 mi Calm Calm - N/A   Mostly Cloudy
3:51 AM 3.2 °F - -4.0 °F 72% 29.96 in 10.0 mi Calm Calm - N/A   Mostly Cloudy
4:12 AM 3.2 °F -4.2 °F -4.0 °F 72% 29.95 in 10.0 mi West 3.5 mph - N/A   Overcast
4:31 AM 3.2 °F -6.2 °F -4.0 °F 72% 29.94 in 10.0 mi NW 4.6 mph - N/A   Overcast
4:51 AM 3.2 °F - -4.0 °F 72% 29.94 in 10.0 mi Calm Calm - N/A   Overcast
5:12 AM 3.2 °F -6.2 °F -4.0 °F 72% 29.94 in 7.0 mi WNW 4.6 mph - N/A   Overcast
5:31 AM 1.4 °F -11.3 °F -5.8 °F 72% 29.94 in 10.0 mi WNW 6.9 mph - N/A   Scattered Clouds
6:11 AM 1.4 °F -6.2 °F -5.8 °F 72% 29.96 in 10.0 mi WNW 3.5 mph - N/A   Clear
6:31 AM 1.4 °F -6.2 °F -5.8 °F 72% 29.97 in 10.0 mi WNW 3.5 mph - N/A   Clear
6:52 AM 1.4 °F -6.2 °F -5.8 °F 72% 29.98 in 10.0 mi West 3.5 mph - N/A   Clear
7:11 AM 1.4 °F -6.2 °F -5.8 °F 72% 29.99 in 10.0 mi West 3.5 mph - N/A   Clear
7:31 AM 1.4 °F -8.3 °F -5.8 °F 72% 30.00 in 10.0 mi West 4.6 mph - N/A   Clear
7:52 AM 1.4 °F -9.9 °F -5.8 °F 72% 30.00 in 10.0 mi WNW 5.8 mph - N/A   Clear
8:11 AM 1.4 °F -11.3 °F -5.8 °F 72% 30.01 in 10.0 mi NW 6.9 mph - N/A   Clear
8:31 AM 1.4 °F -9.9 °F -5.8 °F 72% 30.00 in 10.0 mi NW 5.8 mph - N/A   Clear
8:52 AM 3.2 °F -10.3 °F -5.8 °F 66% 30.02 in 10.0 mi NW 8.1 mph 17.3 mph N/A   Clear
9:11 AM 3.2 °F -4.2 °F -5.8 °F 66% 30.03 in 10.0 mi WNW 3.5 mph - N/A   Clear
9:31 AM 5.0 °F -5.6 °F -5.8 °F 61% 30.03 in 10.0 mi WNW 5.8 mph - N/A   Clear
9:52 AM 6.8 °F -2.0 °F -4.0 °F 61% 30.03 in 10.0 mi WNW 4.6 mph - N/A   Clear
10:11 AM 6.8 °F -3.5 °F -2.2 °F 67% 30.02 in 10.0 mi NW 5.8 mph - N/A   Scattered Clouds
10:52 AM 6.8 °F -5.9 °F -2.2 °F 67% 30.00 in 10.0 mi NW 8.1 mph - N/A   Scattered Clouds
11:31 AM 6.8 °F -3.5 °F -2.2 °F 67% 29.99 in 5.0 mi WNW 5.8 mph - N/A Snow Light Snow
11:52 AM 5.0 °F -4.1 °F -2.2 °F 72% 29.97 in 1.0 mi WNW 4.6 mph - N/A Snow Light Snow
12:11 PM 6.8 °F -4.8 °F -2.2 °F 67% 29.96 in 2.0 mi WNW 6.9 mph - N/A Snow Light Snow
12:31 PM 6.8 °F -5.9 °F -2.2 °F 67% 29.96 in 4.0 mi WNW 8.1 mph - N/A   Haze
12:52 PM 6.8 °F -3.5 °F -2.2 °F 67% 29.95 in 7.0 mi WNW 5.8 mph - N/A   Overcast
1:11 PM 6.8 °F -5.9 °F -2.2 °F 67% 29.94 in 10.0 mi WNW 8.1 mph - N/A   Overcast
1:31 PM 8.6 °F -2.6 °F -0.4 °F 67% 29.93 in 10.0 mi WNW 6.9 mph - N/A   Overcast
1:52 PM 8.6 °F -2.6 °F -0.4 °F 67% 29.94 in 2.5 mi NW 6.9 mph - N/A Snow Light Snow
2:11 PM 8.6 °F -1.3 °F -0.4 °F 67% 29.95 in 7.0 mi West 5.8 mph - N/A   Overcast
2:31 PM 8.6 °F 0.1 °F -0.4 °F 67% 29.96 in 3.0 mi WNW 4.6 mph - N/A Snow Light Snow
2:52 PM 8.6 °F -2.6 °F -0.4 °F 67% 29.97 in 4.0 mi West 6.9 mph - N/A   Haze
3:11 PM 8.6 °F -3.7 °F -0.4 °F 67% 29.97 in 3.0 mi WNW 8.1 mph - N/A Snow Light Snow
3:31 PM 8.6 °F 2.0 °F 1.4 °F 73% 29.98 in 2.5 mi West 3.5 mph - N/A Snow Light Snow
3:52 PM 8.6 °F -3.7 °F -0.4 °F 67% 29.98 in 5.0 mi West 8.1 mph - N/A   Haze
4:11 PM 8.6 °F -2.6 °F -0.4 °F 67% 29.98 in 2.0 mi WNW 6.9 mph - N/A Snow Light Snow
4:31 PM 8.6 °F -1.3 °F -0.4 °F 67% 29.99 in 2.0 mi NW 5.8 mph - N/A Snow Light Snow
4:52 PM 8.6 °F -2.6 °F -0.4 °F 67% 29.99 in 4.0 mi WNW 6.9 mph - N/A Snow Light Snow
5:11 PM 8.6 °F 0.1 °F -0.4 °F 67% 29.99 in 10.0 mi WNW 4.6 mph - N/A   Overcast
5:32 PM 8.6 °F -1.3 °F -0.4 °F 67% 29.99 in 10.0 mi WNW 5.8 mph - N/A   Overcast
5:51 PM 8.6 °F 0.1 °F -2.2 °F 62% 29.99 in 10.0 mi WNW 4.6 mph - N/A   Overcast
6:12 PM 8.6 °F -2.6 °F -2.2 °F 62% 30.00 in 10.0 mi West 6.9 mph - N/A   Overcast
6:31 PM 6.8 °F -3.5 °F -2.2 °F 67% 30.00 in 10.0 mi WNW 5.8 mph - N/A   Overcast
6:51 PM 6.8 °F -4.8 °F -2.2 °F 67% 30.00 in 10.0 mi West 6.9 mph - N/A   Overcast
7:12 PM 6.8 °F -4.8 °F -4.0 °F 61% 30.01 in 10.0 mi WNW 6.9 mph - N/A   Overcast
7:31 PM 6.8 °F -3.5 °F -4.0 °F 61% 30.01 in 10.0 mi WNW 5.8 mph - N/A   Scattered Clouds
7:51 PM 5.0 °F -5.6 °F -4.0 °F 66% 30.01 in 10.0 mi WNW 5.8 mph - N/A   Scattered Clouds
8:11 PM 5.0 °F -4.1 °F -4.0 °F 66% 30.02 in 10.0 mi WNW 4.6 mph - N/A   Clear
8:31 PM 5.0 °F -6.9 °F -4.0 °F 66% 30.02 in 10.0 mi WNW 6.9 mph - N/A   Clear
8:51 PM 5.0 °F - -4.0 °F 66% 30.03 in 10.0 mi Calm Calm - N/A   Clear
9:11 PM 5.0 °F -9.1 °F -2.2 °F 72% 30.04 in 10.0 mi West 9.2 mph - N/A   Clear
9:31 PM 5.0 °F -6.9 °F -2.2 °F 72% 30.04 in 10.0 mi West 6.9 mph - N/A   Clear
9:51 PM 5.0 °F -5.6 °F -2.2 °F 72% 30.04 in 10.0 mi West 5.8 mph - N/A   Clear
10:31 PM 5.0 °F -5.6 °F -2.2 °F 72% 30.05 in 10.0 mi WNW 5.8 mph - N/A   Overcast
10:51 PM 5.0 °F -5.6 °F -2.2 °F 72% 30.06 in 10.0 mi West 5.8 mph - N/A   Overcast
11:11 PM 5.0 °F -4.1 °F -2.2 °F 72% 30.07 in 10.0 mi West 4.6 mph - N/A   Overcast
11:31 PM 3.2 °F -6.2 °F -4.0 °F 72% 30.07 in 10.0 mi West 4.6 mph - N/A   Scattered Clouds
11:51 PM 3.2 °F -6.2 °F -4.0 °F 72% 30.07 in 10.0 mi West 4.6 mph - N/A   Scattered Clouds